Regional Weather Roundup
Issued by NWS Wakefield, VA

Home | Current Version | Previous Version | Graphics & Text | Print | Product List | Glossary On
Versions: 1 2 3 4 5 6 7 8 9 10 11 12 13 14 15 16 17 18 19 20 21 22 23 24 25 26 27 28 29 30 31 32 33 34 35 36 37 38 39 40 41 42 43 44 45 46 47 48 49 50
000
ASUS41 KAKQ 300415
RWRAKQ

REGIONAL WEATHER ROUNDUP
NATIONAL WEATHER SERVICE WAKEFIELD VA
1200 AM EDT TUE JUN 30 2015

Note: "fair" indicates few or no clouds below 12,000 feet with no
significant weather and/or obstructions to visibility. * = Denotes
station may not report precipitation (e.g., rain,snow,etc.),
thunder or fog.

VAZ042-051-052>054-056-300500-
NORTHERN VIRGINIA

CITY           SKY/WX    TMP DP  RH WIND       PRES   REMARKS
WASH NATIONAL  CLEAR     73  62  68 S5        29.95S
DULLES         PTCLDY    69  58  67 SE3       29.94S
FORT BELVOIR   CLEAR     65  63  91 CALM      29.94S
QUANTICO       CLEAR     75  63  66 S7        29.95R
FREDERICKSBRG* CLEAR     72  64  75 S6        29.94R
STAFFORD*      CLEAR     62  60  95 CALM      29.99R
WARRENTON      CLEAR     67  64  90 CALM      29.94S
CULPEPER*        N/A     65  61  86 CALM      29.95S
MANASSAS*      CLEAR     66  63  88 CALM      29.94S
LEESBURG*      CLEAR     70  61  73 S6        29.95S
WINCHESTER     PTCLDY    68  59  73 CALM      29.93S
FRONT ROYAL*   FAIR      70  59  68 SW3       29.92F
LURAY*         FAIR      70  61  73 SW5       29.94F
$$

VAZ048-049-060>072-079>083-300500-
CENTRAL AND SOUTH CENTRAL VIRGINIA

CITY           SKY/WX    TMP DP  RH WIND       PRES   REMARKS
RICHMOND       PTCLDY    71  65  81 SE7       29.95S
CHESTERFIELD*  NOT AVBL
PETERSBURG*    CLEAR     72  71  98 CALM      29.95F
HANOVER        CLEAR     69  64  84 SE3       29.96F
TAPPAHANNOCK*  CLEAR     70  62  75 CALM      29.96F
QUINTON*       FAIR      70  65  85 E3        29.95S
CHARLOTTSVILLE CLEAR     66  60  81 CALM      29.95S
GORDONSVILLE*  FAIR      64  63  94 CALM      29.94F
ORANGE*        CLEAR     64  63  94 CALM      29.96S
LOUISA*        CLEAR     64  63  94 CALM      29.94S
BUMPASS*       FAIR      69  63  82 CALM      29.95S
FARMVILLE*     CLEAR     67  67 100 CALM      29.94S
CREWE*         FAIR      67  66  96 CALM      29.95S
FORT PICKETT*  FAIR      71  65  84 S9        29.95F
CHASE CITY*    FAIR      71  70  97 CALM      29.95F
CLARKSVILLE*   FAIR      68  66  94 CALM      29.94F
SOUTH HILL*    CLEAR     66  65  95 CALM      30.01S
LAWRENCEVILLE* NOT AVBL
EMPORIA*       CLEAR     70  68  94 E3        29.97S
$$

VAZ088>098-300500-
SOUTHEAST VIRGINIA

CITY           SKY/WX    TMP DP  RH WIND       PRES   REMARKS
NORFOLK        CLEAR     75  67  76 SE7       29.97S
VIRGINIA BEACH PTCLDY    76  69  79 SE8       29.97S
NORFOLK NAVAL  PTCLDY    74  68  81 SE7       29.98F
WEST POINT*    CLEAR     74  67  78 E5        29.97S
SALUDA*        FAIR      72  67  83 SE8       29.96F
NEWPORT NEWS   PTCLDY    75  67  76 SE5       29.96F
LANGLEY AFB    PTCLDY    75  68  78 SE6       29.95F
FORT EUSTIS    PTCLDY    75  72  90 SE7       29.94F
WILLIAMSBURG*  CLEAR     79  72  78 S13       29.97S
HR EXEC AP*    FAIR      72  66  83 SE7       29.99F
FRANKLIN*      CLEAR     73  69  87 SE3       29.96F
WAKEFIELD      CLEAR     73  67  81 CALM      29.96F
$$

VAZ020-022-025-037-045-300500-
WEST CENTRAL AND SOUTHWEST VIRGINIA

CITY           SKY/WX    TMP DP  RH WIND       PRES   REMARKS
STAUNTON*      CLEAR     66  60  81 CALM      29.97F
WAYNESBORO*    FAIR      64  58  80 CALM      29.98S
HOT SPRINGS VA CLOUDY    65  53  65 S12G20    30.04F
LYNCHBURG      CLEAR     64  62  93 CALM      29.97F
DANVILLE       CLEAR     67  64  90 CALM      29.95F
SOUTH BOSTON*  FAIR      67  64  90 MISG      29.95S
MARTINSVILLE   CLEAR     64  64 100 CALM      29.99F
ROANOKE        CLOUDY    72  60  66 CALM      29.98F
BLACKSBURG     MOCLDY    63  59  86 CALM      30.04S
DUBLIN*        CLOUDY    65  63  93 CALM      30.01F
MARION*        MOCLDY    65  60  84 NW3       30.03F
HILLSVILLE*    PTCLDY    68  56  67 S7        30.05F
RICHLANDS*     MOCLDY    67  63  87 S3        29.99F
WISE*          CLOUDY    66  64  94 SW13      30.01R
ABINGDON*      MOCLDY    72  63  73 W8        29.99S
$$

MDZ021>025-VAZ099-100-300500-
SOUTHERN MARYLAND AND THE DELMARVA PENINSULA

CITY           SKY/WX    TMP DP  RH WIND       PRES   REMARKS
PATUXENT RIVER CLEAR     73  64  73 S8        29.95S
BAY BRIDGE APT   N/A     73  61  64 SE6       29.95S
LEONARDTOWN    CLEAR     70  63  78 CALM      29.96F
DOVER          CLEAR     68  60  77 S5        29.94S
GEORGETOWN     CLEAR     67  60  78 S6        29.98S
EASTON         CLEAR     70  62  76 S6        30.00S
CAMBRIDGE      CLEAR     68  61  77 SE3       29.96S
SALISBURY      CLEAR     67  62  84 SE3       29.97F
OCEAN CITY     CLEAR     72  66  81 S3        29.98F
WALLOPS ISLAND CLEAR     72  67  84 S8        29.98F
ACCOMACK*      CLEAR     70  66  88 SE8       29.98S
$$

NCZ012>017-030>032-300500-
NORTH CENTRAL AND EASTERN NORTH CAROLINA

CITY           SKY/WX    TMP DP  RH WIND       PRES   REMARKS
ROANOKE RAPIDS FAIR      72  68  88 S5        29.95F
RALEIGH        PTCLDY    74  67  78 S5        29.96F
ELIZABETH CITY PTCLDY    75  71  87 SE7       29.97F
AHOSKIE*       CLEAR     68  65  91 CALM      29.97S
EDENTON*       CLOUDY    77  71  81 SE6       29.97S
CURRITUCK*     PTCLDY    73  69  86 CALM      29.99S
KILL DEVIL HLS CLEAR     74  69  85 CALM      29.98S
MANTEO         CLEAR     73  71  92 CALM      29.99S
CAPE HATTERAS  PTCLDY    77  73  87 CALM      29.99R
TARBORO*         N/A     70  68  92 CALM      29.97F
GOLDSBORO      CLEAR     75  71  89 S3        29.95S
WASHINGTON     CLEAR     75  69  81 S3        29.98S
GREENVILLE     CLEAR     73  68  83 S5        29.99S
NEW BERN       CLEAR     75  72  90 S5        29.99R
WILMINGTON     CLEAR     77  70  79 S7        29.98R
$$

VAZ048-300500-
ELSEWHERE

CITY           SKY/WX    TMP DP  RH WIND       PRES   REMARKS
HARRISBURG PA  MOCLDY    69  61  75 S5        29.93R
BALTIMORE      PTCLDY    69  61  75 CALM      29.94F
ANNAPOLIS      CLEAR     74  64  71 SE8       29.94F
ANDREWS AFB    CLEAR     68  63  84 S6        29.94S
PHILADELPHIA   CLEAR     73  59  61 S7        29.95F
HENDERSON NC   CLEAR     70  64  79 CALM      29.96F
GREENSBORO     PTCLDY    73  60  63 S8        29.96F
ROCKY MOUNT    CLEAR     72  67  84 CALM      29.96F
$$

VAZ100-300500-
MARINE

STATION/POSITION TIME  TEMP    WIND        PRES    WAVE   SWELL
                       AIR SEA DIR/SP/G            HT/PER HT/PER
                 (UTC) (F)     (DEG/KT/KT) (MB)    (FT/S) (FT/S)
BRANDYWINE LGT   0300   74 72  220/ 10/ 12 1015.1F
CAPE MAY NJ      0300   71 77  170/  4/  5 1014.8F
LEWES DE         0300   71 72  180/  4/  5 1014.8F
15NM E FENWICK I 0350   72 72              1014.9F   3/ 8
OCEAN-CITY-INLET 0300   72 72  190/  8/ 10 1015.2F
WACHAPREAGUE VA  0300   74 80  170/  5/  7 1015.4F
THOMAS POINT MD  0300   76     160/ 13/ 15   N/A
GOOSES REEF MD   0400   78 77  190/ 16/ 17 1014.9F
COVE POINT MD    0300   76     200/ 11/ 14 1015.0F
SOLOMONS ISLAND  0300      80                N/A
BISHOPS HEAD MD  0300   77     170/ 13/ 14 1014.3F
PINEY POINT MD   0300          190/ 13/ 16   N/A
CAMBRIDGE MD     0300   73 80  160/  2/  6 1014.4F
LEWISETTA VA     0300   74 81  180/  7/  8 1014.3F
RAPPAHANNOCK LGT 0300          130/ 11/ 13 1015.5F
STINGRAY PT      0400   77 80  160/ 14/ 16 1014.5F   2/ 2
YORK RVR RNG VA  0300   77     160/ 14/ 15 1014.4R
YORKTOWN VA      0300   76 80  160/  5/  8 1014.5F
JAMESTOWN VA     0400   76 83  150/ 12/ 14   N/A
DOMINION TERM VA 0300   77     150/ 10/ 11 1014.7R
KIPTOPEKE VA     0300      84  150/  8/ 10   N/A
CHES BAY BRIDGE  0300   76 75  140/  7/ 10 1014.7R
CAPE HENRY VA    0300   76     140/  7/ 10 1013.5S
CHESAPEAKE LGHT  0300   76     140/ 14/ 14 1015.7F
WILLOUBY STN VA  0300   76     160/ 12/ 14 1015.6S
CAPE HENRY BUOY  0328      77                N/A     2/ 8
1ST LANDING BUOY 0400      76              1014.6F   2/ 3
CAPE CHARLES BUO 0326      76                N/A     2/10   2/10
OFFSHORE WE BUOY 0311      78                N/A     3/ 8   3/ 8
64NM E OF VA BCH 0350   76 75  110/  8/ 10 1015.2R   4/ 8   3/ 8
DUCK PIER NC     0300   74 69  140/  5/  7 1014.4R
44100 DUCK FRF   0324      76                N/A     3/ 8
44056 DUCK FRF   0311      74                N/A     2/ 8
OREGON INLET NC  0300   73 75   90/  3/  4 1015.3R
HATTERAS NC      0300   79 81  240/  2/  3 1015.0R
DIAMOND SHLS NC  0350   80 80  250/ 10/ 12 1015.3S   4/ 8   3/ 8
CAPE LOOKOUT NC  0400   79     230/  6/ 11 1015.3R
$$



USA.gov is the U.S. government's official web portal to all federal, state and local government web resources and services.